Orr, MN

8:40 PM CDT on May 22, 2018 (GMT -0500)
Orr Regional

Weather History for KORB - January, 2013

Change the Weather History Date:

Saturday, January 5, 2013

  Actual Average Record
Temperature  
Mean Temperature 6 °F -  
Max Temperature 17 °F 14 °F 46 °F (2012)
Min Temperature -5 °F 0 °F -32 °F (2018)
Degree Days  
Heating Degree Days 59    
Moisture  
Dew Point 6 °F    
Average Humidity 85    
Maximum Humidity 93    
Minimum Humidity 77    
Precipitation  
Precipitation 0.00 in - - ()
Sea Level Pressure  
Sea Level Pressure 29.93 in    
Wind  
Wind Speed 0 mph (NW)    
Max Wind Speed 5 mph    
Max Gust Speed -    
Visibility 9 miles    
Events      
Averages and records for this station are not official NWS values.
T = Trace of Precipitation, MM = Missing Value Source: NWS Daily Summary

Daily Weather History Graph

Daily Weather History Graph

Search for Another Location

Airport or City:

Astronomy

Jan. 05, 2013 Rise Set
Actual Time 8:00 AM CST 4:33 PM CST
Civil Twilight 7:24 AM CST 5:09 PM CST
Nautical Twilight 6:45 AM CST 5:48 PM CST
Astronomical Twilight 6:08 AM CST 6:26 PM CST
Moon 12:51 AM CST (1/5) 11:37 AM CST (1/5)
Length of Visible Light 9h 44m
Length of Day
8h 32m
Last Quarter, 44% of the Moon is Illuminated
Jan 5
Last Quarter
Jan 11
New
Jan 18
First Quarter
Jan 26
Full
Feb 3
Last Quarter

Hourly Weather History & Observations

Time (CST) Temp. Windchill Dew Point Humidity Pressure Visibility Wind Dir Wind Speed Gust Speed Precip Events Conditions
12:13 AM 1.4 °F - -2.2 °F 85% 30.02 in 10.0 mi Calm Calm - N/A   Clear
12:33 AM 3.2 °F - -0.4 °F 85% 30.01 in 10.0 mi Calm Calm - N/A   Clear
12:53 AM -0.4 °F - -5.8 °F 78% 30.01 in 10.0 mi Calm Calm - N/A   Clear
1:13 AM 1.4 °F - -2.2 °F 85% 30.02 in 10.0 mi Calm Calm - N/A   Clear
1:33 AM 5.0 °F - 1.4 °F 85% 30.01 in 10.0 mi Calm Calm - N/A   Clear
1:53 AM -2.2 °F - -7.6 °F 78% 30.01 in 10.0 mi Calm Calm - N/A   Clear
2:13 AM 1.4 °F - -2.2 °F 85% 30.01 in 10.0 mi Calm Calm - N/A   Clear
2:33 AM 1.4 °F - -2.2 °F 85% 30.01 in 10.0 mi Calm Calm - N/A   Clear
2:53 AM 1.4 °F - -2.2 °F 85% 30.01 in 10.0 mi Calm Calm - N/A   Clear
3:13 AM 3.2 °F - -0.4 °F 85% 30.00 in 10.0 mi Calm Calm - N/A   Scattered Clouds
3:33 AM 3.2 °F - -0.4 °F 85% 29.99 in 10.0 mi Calm Calm - N/A   Scattered Clouds
3:53 AM 1.4 °F - -2.2 °F 85% 29.99 in 10.0 mi Calm Calm - N/A   Clear
4:13 AM -2.2 °F - -7.6 °F 78% 29.97 in 10.0 mi Calm Calm - N/A   Clear
4:33 AM -2.2 °F - -5.8 °F 85% 29.97 in 10.0 mi Calm Calm - N/A   Clear
4:53 AM -2.2 °F - -5.8 °F 85% 29.96 in 10.0 mi Calm Calm - N/A   Clear
5:13 AM -2.2 °F - -7.6 °F 78% 29.96 in 10.0 mi Calm Calm - N/A   Clear
5:33 AM -2.2 °F - -7.6 °F 78% 29.96 in 10.0 mi Calm Calm - N/A   Clear
5:53 AM -2.2 °F - -7.6 °F 78% 29.95 in 10.0 mi Calm Calm - N/A   Clear
6:13 AM -2.2 °F - -7.6 °F 78% 29.94 in 10.0 mi Calm Calm - N/A   Clear
6:33 AM -4.0 °F - -9.4 °F 78% 29.94 in 10.0 mi Calm Calm - N/A   Clear
7:13 AM -5.8 °F - -9.4 °F 84% 29.94 in 10.0 mi Calm Calm - N/A   Clear
7:33 AM -5.8 °F - -11.2 °F 77% 29.93 in 10.0 mi Calm Calm - N/A   Clear
7:53 AM -2.2 °F - -7.6 °F 78% 29.92 in 7.0 mi Calm Calm - N/A   Scattered Clouds
8:13 AM -2.2 °F - -7.6 °F 78% 29.92 in 7.0 mi Calm Calm - N/A   Mostly Cloudy
8:33 AM -2.2 °F - -7.6 °F 78% 29.92 in 10.0 mi Calm Calm - N/A   Overcast
8:53 AM -0.4 °F - -5.8 °F 78% 29.93 in 4.0 mi Calm Calm - N/A   Overcast
9:13 AM 1.4 °F - -2.2 °F 85% 29.92 in 1.2 mi Calm Calm - N/A   Overcast
9:53 AM 3.2 °F - -0.4 °F 85% 29.93 in 2.5 mi Calm Calm - N/A   Overcast
10:13 AM 6.8 °F - 3.2 °F 85% 29.93 in 7.0 mi Calm Calm - N/A   Overcast
10:53 AM 10.4 °F - 6.8 °F 85% 29.92 in 10.0 mi Calm Calm - N/A   Overcast
11:13 AM 10.4 °F - 6.8 °F 85% 29.91 in 10.0 mi Calm Calm - N/A   Overcast
11:33 AM 12.2 °F - 10.4 °F 92% 29.90 in 10.0 mi Calm Calm - N/A   Overcast
11:53 AM 14.0 °F - 10.4 °F 86% 29.90 in 10.0 mi Calm Calm - N/A   Overcast
12:13 PM 15.8 °F - 12.2 °F 86% 29.89 in 10.0 mi Calm Calm - N/A   Overcast
12:33 PM 15.8 °F - 12.2 °F 86% 29.88 in 3.0 mi Calm Calm - N/A   Overcast
12:53 PM 15.8 °F - 12.2 °F 86% 29.88 in 3.0 mi Calm Calm - N/A   Overcast
1:13 PM 15.8 °F - 12.2 °F 86% 29.87 in 7.0 mi Calm Calm - N/A   Overcast
1:33 PM 15.8 °F - 12.2 °F 86% 29.86 in 7.0 mi Calm Calm - N/A   Overcast
1:53 PM 15.8 °F - 12.2 °F 86% 29.86 in 10.0 mi Calm Calm - N/A   Overcast
2:13 PM 15.8 °F - 12.2 °F 86% 29.85 in 10.0 mi Calm Calm - N/A   Overcast
2:33 PM 15.8 °F - 12.2 °F 86% 29.85 in 10.0 mi Calm Calm - N/A   Overcast
2:53 PM 15.8 °F - 12.2 °F 86% 29.86 in 10.0 mi Calm Calm - N/A   Mostly Cloudy
3:13 PM 15.8 °F - 12.2 °F 86% 29.86 in 10.0 mi Calm Calm - N/A   Overcast
3:33 PM 17.6 °F - 14.0 °F 86% 29.86 in 10.0 mi Calm Calm - N/A   Mostly Cloudy
3:53 PM 17.6 °F - 14.0 °F 86% 29.87 in 10.0 mi Calm Calm - N/A   Overcast
4:13 PM 17.6 °F - 14.0 °F 86% 29.87 in 10.0 mi Calm Calm - N/A   Mostly Cloudy
4:33 PM 17.6 °F - 14.0 °F 86% 29.88 in 10.0 mi Calm Calm - N/A   Overcast
4:53 PM 17.6 °F - 14.0 °F 86% 29.89 in 10.0 mi Calm Calm - N/A   Overcast
5:13 PM 17.6 °F - 14.0 °F 86% 29.89 in 10.0 mi Calm Calm - N/A   Overcast
5:33 PM 17.6 °F - 15.8 °F 93% 29.90 in 10.0 mi Calm Calm - N/A   Overcast
5:53 PM 17.6 °F - 15.8 °F 93% 29.89 in 10.0 mi Calm Calm - N/A   Overcast
6:13 PM 17.6 °F - 15.8 °F 93% 29.90 in 10.0 mi Calm Calm - N/A   Overcast
6:33 PM 17.6 °F - 14.0 °F 86% 29.90 in 10.0 mi Calm Calm - N/A   Mostly Cloudy
6:53 PM 17.6 °F - 14.0 °F 86% 29.91 in 10.0 mi Calm Calm - N/A   Overcast
7:13 PM 17.6 °F - 14.0 °F 86% 29.90 in 10.0 mi Calm Calm - N/A   Overcast
7:53 PM 17.6 °F - 14.0 °F 86% 29.90 in 10.0 mi Calm Calm - N/A   Overcast
8:13 PM 17.6 °F 10.7 °F 14.0 °F 86% 29.92 in 10.0 mi NW 4.6 mph - N/A   Overcast
8:33 PM 17.6 °F - 14.0 °F 86% 29.92 in 10.0 mi Calm Calm - N/A   Overcast
8:53 PM 17.6 °F - 14.0 °F 86% 29.93 in 10.0 mi Calm Calm - N/A   Overcast
9:13 PM 17.6 °F - 15.8 °F 93% 29.92 in 10.0 mi Calm Calm - N/A   Overcast
9:33 PM 17.6 °F - 15.8 °F 93% 29.93 in 10.0 mi Calm Calm - N/A   Overcast
9:53 PM 17.6 °F - 15.8 °F 93% 29.93 in 10.0 mi Calm Calm - N/A   Overcast
10:13 PM 17.6 °F 12.3 °F 14.0 °F 86% 29.92 in 10.0 mi NW 3.5 mph - N/A   Overcast
10:33 PM 17.6 °F - 14.0 °F 86% 29.93 in 10.0 mi Calm Calm - N/A   Overcast
10:53 PM 17.6 °F - 14.0 °F 86% 29.93 in 10.0 mi Calm Calm - N/A   Overcast
11:13 PM 15.8 °F - 14.0 °F 93% 29.93 in 10.0 mi Calm Calm - N/A   Overcast
11:33 PM 15.8 °F 10.2 °F 12.2 °F 86% 29.93 in 10.0 mi NW 3.5 mph - N/A   Overcast
11:53 PM 15.8 °F 10.2 °F 12.2 °F 86% 29.94 in 10.0 mi NW 3.5 mph - N/A   Overcast